FENGYUN 1C DEB

Satellite information

Favourite Embed

Satellite Type and Status

DEBRISIN ORBIT

Key statistics

Satellite FENGYUN 1C DEB at a glance.

Uptime

9665

Days in orbit

Revolutions

≈ 15.2

Per day

Orbit

SSO

Sun Synchronous Orbit

Inclination

98.8

Latest

Satellite identification and parameters

Extended collection of information and parameters for FENGYUN 1C DEB.

Object identification

Identified? True

Debris? True

Object name: FENGYUN 1C DEB

International designator: 1999-025AUA

Object number (NORAD): 30764

Object ID (CCSDS): 30764

Country: PEOPLES REPUBLIC OF CHINA (PRC)

Current information (Y/N): Y

RCS size: SMALL

Orbital parameters

Period: 94.452 minutes

Inclination: 98.7741 deg

SMA: 6870.185 km

Apoapsis: 548.564 km

Periapsis: 435.536 km

RAAN: 259.9655 deg

Eccentricy: 0.00822601

Argument of periapsis: 341.1012 deg

Mean anomaly: 18.7173 deg

Mean motion: 15.2457971 rev/day

Mean motion (dot): 0.00050067 rev/day2

B* drag term: 0.0018381991 1/REarth

Two-line elements (TLE)

Creation date: Oct. 25, 2025, 3:11 a.m.

Reference frame: TEME

Reference center: EARTH

Epoch: Oct. 24, 2025, 8:13 p.m. UTC

TLE line 0: 0 FENGYUN 1C DEB

TLE line 1: 1 30764U 99025AUA 25297.84269639 .00050067 00000-0 18382-2 0 9999

TLE line 2: 2 30764 98.7741 259.9655 0082260 341.1012 18.7173 15.24579710 4764

Live tracking on map

Real-time ground track for satellite FENGYUN 1C DEB.

In-orbit conjunctions

A list of the most updated potential collisions computed for object FENGYUN 1C DEB.

Target Orbit TCA Probability of collision Miss distance Type
COSMOS 2242 LEO 2025-04-20 01:20:50 0.0001401641 456.0 (m) PAYLOAD
CZ-6A DEB SSO 2024-11-13 06:11:50 0.0001887793 544.0 (m) DEBRIS

Associated space launch

Chinese polar orbiting meteorological satellite

FENGYUN 1C DEB was lifted into orbit during the mission ‘Long March 4B | Feng Yun 1C’, on board a Long March 4B space rocket.

The launch took place on May 10, 1999, 1:33 a.m. from Launch Complex 7.

For more information about the launch, click the button.

Launch to space Long March 4B | Feng Yun 1C
Long March 4B | Feng Yun 1C

Agency: N/A

Status: Launch Successful

Launch date: May 10, 1999, 1:33 a.m. UTC

Rocket: Long March 4B

Launch pad: Launch Complex 7

Location: Taiyuan Satellite Launch Center, People's Republic of China

...

Latest news about this satellite

There are no fresh news available about this satellite. Check back as we update our databases every day.


Newsletter sign-up

Weekly statistics, charts and insights to help you stay on top of the space industry.